CW3868 Weather Reports


Display with metric or nautical units.
time (UTC)temp
F
wind
direction
speed
MPH
gust
MPH
rain 1hr
in
rain 24hr
in
rain mn
in
humidity
%
barometer
mb
20220625155805 85 85 1.0 6.0 0.00 0.00 0.00 49 1018.8
20220625154804 84 309 3.0 8.0 0.00 0.00 0.00 48 1018.8
20220625153804 84 215 3.0 4.0 0.00 0.00 0.00 46 1018.7
20220625152804 83 349 2.0 5.0 0.00 0.00 0.00 48 1018.7
20220625151803 83 255 2.0 6.0 0.00 0.00 0.00 51 1018.5
20220625150805 82 289 4.0 7.0 0.00 0.00 0.00 50 1018.5
20220625145804 81 152 1.0 7.0 0.00 0.00 0.00 50 1018.5
20220625144804 81 26 2.0 6.0 0.00 0.00 0.00 51 1018.5
20220625143803 80 293 4.0 7.0 0.00 0.00 0.00 53 1018.6
20220625142805 81 270 4.0 7.0 0.00 0.00 0.00 52 1018.5
20220625141804 81 260 2.0 6.0 0.00 0.00 0.00 51 1018.7
20220625140803 81 301 1.0 6.0 0.00 0.00 0.00 52 1018.6
20220625135804 81 288 2.0 4.0 0.00 0.00 0.00 54 1018.5
20220625134803 80 343 0.0 5.0 0.00 0.00 0.00 56 1018.5
20220625133804 80 289 2.0 4.0 0.00 0.00 0.00 57 1018.5
20220625132805 78 264 1.0 2.0 0.00 0.00 0.00 58 1018.5
20220625131803 77 249 1.0 3.0 0.00 0.00 0.00 60 1018.4
20220625130804 76 251 1.0 4.0 0.00 0.00 0.00 63 1018.5
20220625125804 75 257 2.0 3.0 0.00 0.00 0.00 63 1018.6
20220625124805 75 347 1.0 2.0 0.00 0.00 0.00 64 1018.6
20220625123804 74 294 2.0 4.0 0.00 0.00 0.00 66 1018.7
20220625122803 73 80 0.0 3.0 0.00 0.00 0.00 68 1018.8
20220625121804 72 346 1.0 4.0 0.00 0.00 0.00 69 1018.7
20220625120803 71 318 1.0 5.0 0.00 0.00 0.00 69 1018.7
20220625115804 71 313 2.0 5.0 0.00 0.00 0.00 71 1018.7
20220625114805 69 278 3.0 5.0 0.00 0.00 0.00 72 1018.8
20220625113804 69 283 3.0 4.0 0.00 0.00 0.00 73 1018.7
20220625112804 68 276 2.0 6.0 0.00 0.00 0.00 75 1018.7
20220625111804 67 277 2.0 3.0 0.00 0.00 0.00 78 1018.7
20220625110804 65 334 0.0 4.0 0.00 0.00 0.00 80 1018.6
20220625105804 64 289 0.0 0.0 0.00 0.00 0.00 84 1018.6
20220625104804 63 274 0.0 0.0 0.00 0.00 0.00 86 1018.4
20220625103803 62 279 0.0 1.0 0.00 0.00 0.00 88 1018.2
20220625102804 61 326 2.0 3.0 0.00 0.00 0.00 88 1018.2
20220625101803 61 273 0.0 0.0 0.00 0.00 0.00 88 1018.2
20220625100804 60 275 0.0 2.0 0.00 0.00 0.00 88 1018.0
20220625095804 60 272 2.0 4.0 0.00 0.00 0.00 88 1018.0
20220625094803 59 360 0.0 0.0 0.00 0.00 0.00 88 1017.8
20220625093804 59 265 0.0 0.0 0.00 0.00 0.00 88 1017.7
20220625092804 59 265 0.0 2.0 0.00 0.00 0.00 87 1017.6
20220625091804 59 265 1.0 3.0 0.00 0.00 0.00 88 1017.5
20220625090804 58 255 0.0 0.0 0.00 0.00 0.00 87 1017.4
20220625085803 59 255 0.0 0.0 0.00 0.00 0.00 87 1017.2
20220625084804 59 256 0.0 0.0 0.00 0.00 0.00 87 1017.0
20220625083803 59 255 0.0 0.0 0.00 0.00 0.00 87 1016.8
20220625082804 59 252 0.0 0.0 0.00 0.00 0.00 87 1016.7
20220625081804 59 251 0.0 0.0 0.00 0.00 0.00 87 1016.6
20220625080805 59 252 0.0 0.0 0.00 0.00 0.00 87 1016.4
20220625075803 60 252 0.0 0.0 0.00 0.00 0.00 86 1016.4
20220625074804 60 252 0.0 0.0 0.00 0.00 0.00 86 1016.2
20220625073804 60 252 0.0 0.0 0.00 0.00 0.00 86 1016.2
20220625072803 60 252 0.0 0.0 0.00 0.00 0.00 86 1016.3
20220625071804 60 252 0.0 0.0 0.00 0.00 0.00 86 1016.2
20220625070803 61 252 0.0 0.0 0.00 0.00 0.00 86 1016.2
20220625065804 61 252 0.0 0.0 0.00 0.00 0.00 85 1016.3
20220625064804 61 252 0.0 0.0 0.00 0.00 0.00 86 1016.2
20220625063803 61 253 0.0 0.0 0.00 0.00 0.00 85 1016.3
20220625062804 62 252 0.0 0.0 0.00 0.00 0.00 85 1016.2
20220625061803 62 251 0.0 0.0 0.00 0.00 0.00 85 1016.3
20220625060804 62 250 0.0 0.0 0.00 0.00 0.00 85 1016.4
20220625055804 62 260 0.0 0.0 0.00 0.00 0.00 85 1016.2
20220625054804 63 249 0.0 0.0 0.00 0.00 0.00 85 1016.1
20220625053804 63 250 0.0 0.0 0.00 0.00 0.00 84 1016.0
20220625052803 63 251 0.0 0.0 0.00 0.00 0.00 84 1016.0
20220625051804 63 249 0.0 0.0 0.00 0.00 0.00 84 1016.1
20220625050804 63 252 0.0 0.0 0.00 0.00 0.00 84 1016.1
20220625045804 64 253 0.0 0.0 0.00 0.00 0.00 84 1016.2
20220625044804 64 253 0.0 0.0 0.00 0.00 0.00 83 1016.2
20220625043803 64 255 0.0 0.0 0.00 0.00 0.00 83 1016.2
20220625042804 64 252 0.0 0.0 0.00 0.00 0.00 83 1016.2
20220625041805 65 253 0.0 0.0 0.00 0.00 0.00 82 1016.3
20220625040803 65 254 0.0 0.0 0.00 0.00 0.00 82 1016.2
20220625035805 65 253 0.0 0.0 0.00 0.00 0.00 81 1016.2
20220625034804 66 252 0.0 0.0 0.00 0.00 0.00 81 1016.2
20220625033803 66 252 0.0 0.0 0.00 0.00 0.00 80 1016.3
20220625032804 66 252 0.0 0.0 0.00 0.00 0.00 80 1016.2
20220625031803 67 251 0.0 0.0 0.00 0.00 0.00 80 1016.2
20220625030804 67 360 0.0 0.0 0.00 0.00 0.00 80 1016.2
20220625025804 67 248 0.0 0.0 0.00 0.00 0.00 79 1016.2
20220625024803 67 246 0.0 0.0 0.00 0.00 0.00 79 1016.2
20220625023804 67 221 0.0 0.0 0.00 0.00 0.00 79 1016.2
20220625022804 68 215 0.0 0.0 0.00 0.00 0.00 77 1016.1
20220625021804 68 207 0.0 0.0 0.00 0.00 0.00 76 1016.0
20220625020804 69 207 0.0 0.0 0.00 0.00 0.00 75 1016.0
20220625015804 69 207 0.0 0.0 0.00 0.00 0.00 74 1015.9
20220625014803 70 207 0.0 0.0 0.00 0.00 0.00 73 1015.8
20220625013804 70 207 0.0 0.0 0.00 0.00 0.00 72 1015.8
20220625012803 71 206 0.0 3.0 0.00 0.00 0.00 71 1015.6
20220625011804 71 197 1.0 4.0 0.00 0.00 0.00 71 1015.6
20220625010804 71 198 0.0 3.0 0.00 0.00 0.00 70 1015.5
20220625005804 72 242 0.0 1.0 0.00 0.00 0.00 69 1015.5
20220625004804 72 223 0.0 0.0 0.00 0.00 0.00 69 1015.3
20220625001804 73 160 0.0 4.0 0.00 0.00 0.00 67 1015.1
20220625000807 74 116 2.0 5.0 0.00 0.00 0.00 66 1015.1
20220624235803 74 155 1.0 4.0 0.00 0.00 0.00 67 1015.0
20220624234804 75 184 0.0 4.0 0.00 0.00 0.00 65 1015.0
20220624233803 75 158 0.0 4.0 0.00 0.00 0.00 64 1014.9
20220624232804 76 80 2.0 6.0 0.00 0.00 0.00 63 1014.8
20220624231804 77 121 2.0 7.0 0.00 0.00 0.00 62 1014.7
20220624230803 77 128 2.0 6.0 0.00 0.00 0.00 62 1014.6
20220624225804 77 107 1.0 6.0 0.00 0.00 0.00 62 1014.5
20220624224806 77 92 3.0 7.0 0.00 0.00 0.00 62 1014.5
20220624223804 78 87 3.0 8.0 0.00 0.00 0.00 60 1014.4
20220624222806 79 83 4.0 8.0 0.00 0.00 0.00 58 1014.3
20220624221803 80 106 3.0 7.0 0.00 0.00 0.00 54 1014.2
20220624220805 81 288 2.0 8.0 0.00 0.00 0.00 51 1014.0
20220624215803 83 272 6.0 11.0 0.00 0.00 0.00 49 1013.9
20220624214804 83 270 4.0 8.0 0.00 0.00 0.00 48 1013.9
20220624213803 83 1 1.0 7.0 0.00 0.00 0.00 48 1013.9
20220624212804 83 280 3.0 8.0 0.00 0.00 0.00 49 1013.9
20220624211804 82 322 3.0 8.0 0.00 0.00 0.00 50 1013.9
20220624205804 82 265 4.0 7.0 0.00 0.00 0.00 50 1014.0
20220624204803 82 330 1.0 9.0 0.00 0.00 0.00 50 1014.0
20220624203804 82 10 3.0 8.0 0.00 0.00 0.00 51 1014.1
20220624202803 82 341 3.0 12.0 0.00 0.00 0.00 51 1014.0
20220624201804 82 240 4.0 12.0 0.00 0.00 0.00 52 1014.1
20220624200804 82 316 1.0 9.0 0.00 0.00 0.00 49 1014.1
20220624195803 82 328 3.0 6.0 0.00 0.00 0.00 49 1014.1
20220624194804 82 352 2.0 7.0 0.00 0.00 0.00 53 1014.2
20220624193803 81 311 2.0 8.0 0.00 0.00 0.00 52 1014.2
20220624192804 81 301 2.0 9.0 0.00 0.00 0.00 54 1014.4
20220624191803 80 294 3.0 6.0 0.00 0.00 0.00 55 1014.4
20220624190804 79 2 3.0 7.0 0.00 0.00 0.00 56 1014.4
20220624185804 79 286 3.0 8.0 0.00 0.00 0.00 57 1014.5
20220624184804 79 318 4.0 7.0 0.00 0.00 0.00 57 1014.5
20220624183803 79 272 7.0 11.0 0.00 0.00 0.00 58 1014.6
20220624182804 79 337 3.0 12.0 0.00 0.00 0.00 57 1014.8
20220624181803 78 334 3.0 9.0 0.00 0.00 0.00 61 1014.7
20220624180804 77 350 2.0 8.0 0.00 0.00 0.00 62 1014.8
20220624175803 77 6 4.0 8.0 0.00 0.00 0.00 61 1014.8
20220624174804 77 321 3.0 6.0 0.00 0.00 0.00 62 1014.9
20220624173804 77 282 5.0 8.0 0.00 0.00 0.00 62 1014.8
20220624172803 77 9 2.0 9.0 0.00 0.00 0.00 61 1014.8
20220624171804 77 295 2.0 8.0 0.00 0.00 0.00 62 1014.9
20220624170804 76 324 1.0 9.0 0.00 0.00 0.00 64 1014.9
20220624165803 77 13 3.0 7.0 0.00 0.00 0.00 61 1015.0
20220624164804 76 326 2.0 10.0 0.00 0.00 0.00 63 1015.0
20220624163803 76 245 3.0 9.0 0.00 0.00 0.00 64 1015.1
20220624162803 75 329 2.0 8.0 0.00 0.00 0.00 65 1015.1
20220624161804 75 282 3.0 7.0 0.00 0.00 0.00 68 1015.1
20220624160803 74 8 4.0 8.0 0.00 0.00 0.00 67 1015.3